India Forums Logo

Pyaar Kii Ye Ek Kahaani

India Forums > Forum Index > Pyaar Kii Ye Ek Kahaani
Pyaar Kii Ye Ek Kahaani is a contemporary, visual, and visceral Romeo and Juliet story of the ultimate forbidden love affair - between a non human and a mortal - Dangerous Love!
...
<< | 304 | 305 | 306 | 307 | 308 | 309 | 310 | 311 | 312 | 313 | 314 | 315 | 316 | 317 | 318 | 319 | 320 | 321 | 322 | ... >>
TIDTopic SubjectStart DateLast Entry
3521414nw TB article: Vishal Gandhi4/5/2013 6:59:31 AM4/5/2013 10:49:19 PM
3521447agar aap abhay hote to4/5/2013 7:28:33 AM4/18/2013 12:50:11 AM
3522437Miss PkYek4/5/2013 7:52:49 PM4/8/2013 10:45:54 PM
3522553ur fav dialouge?4/5/2013 11:15:28 PM4/12/2013 6:30:56 AM
3522563srry its wrong post4/5/2013 11:28:04 PM4/5/2013 11:28:04 PM
3522565choose ur fav promo:)4/5/2013 11:30:37 PM4/9/2013 3:39:25 AM
3522673catwalk4/6/2013 1:07:49 AM4/27/2013 11:22:40 PM
3522754best pakaau chrctr of pkyek4/6/2013 2:51:13 AM4/9/2013 7:41:53 AM
3522834Kuch iss tarha4/6/2013 3:57:04 AM4/25/2013 11:54:13 AM
3522914wah wah kya baat h !!4/6/2013 5:11:18 AM4/26/2013 6:54:49 AM
3523169|Dream pairing|4/6/2013 8:49:18 AM4/9/2013 10:10:53 AM
35231896th APril Vivan With SBB WO/DL4/6/2013 9:03:12 AM5/1/2013 5:07:54 PM
3523634PLEASE VOTE FOR ABHIYA!!!4/6/2013 2:29:42 PM4/11/2013 1:30:24 PM
3523889AbhIya AT#132 *Badtameez Dil Mane Na*4/6/2013 11:59:30 PM4/13/2013 12:20:37 PM
3523902kya Pyaar ki ye ek kahaani star utsav me ata h?4/7/2013 12:20:12 AM4/9/2013 2:34:04 AM
3523936~~~Happy Birthday Aqui../Aqueela~~~ :)4/7/2013 1:08:45 AM5/7/2013 12:30:25 PM
3524048a cute short story :)4/7/2013 3:21:50 AM4/9/2013 7:20:27 AM
3524135I m new here4/7/2013 5:05:56 AM4/8/2013 10:44:32 AM
3524136Golden days of pkyek :)4/7/2013 5:07:30 AM4/14/2013 7:23:26 AM
3524137Imp...peep in...dedicated to abhiya4/7/2013 5:07:49 AM4/9/2013 2:59:57 AM
3524312PKYEK - Destroyed For Love.. Epi 144/7/2013 7:54:40 AM6/2/2013 2:24:36 AM
3524547Bday girl Aqeelah celebrates with DFL team! - FT4/7/2013 10:42:40 AM4/9/2013 10:17:24 AM
3525341pls gv the video link of todays mb sbb segment4/8/2013 4:02:21 AM4/9/2013 5:38:20 PM
35255237th APril Vivan With SBB WO/DL4/8/2013 7:01:27 AM5/1/2013 5:04:34 PM
3526502Sukirti's New Pic :D4/8/2013 8:36:11 PM4/24/2013 8:50:24 AM
3526954fav commedy sequence in pkyek4/9/2013 4:07:08 AM4/12/2013 7:03:45 AM
3526958Two Hotties Face to Face - DFL's new promo4/9/2013 4:11:30 AM4/11/2013 3:33:08 AM
3526963plz help4/9/2013 4:13:53 AM4/13/2013 1:34:09 AM
3527500Ress--4/9/2013 9:59:58 AM4/9/2013 10:03:11 AM
3527521Abhaiya SS..4/9/2013 10:07:01 AM4/9/2013 10:09:44 AM
3527746jaldi kholo ise phele dere ho jaaye !!!4/9/2013 11:32:13 AM4/12/2013 2:08:06 AM
3528111I' M happy to be free of my ex : shreya4/9/2013 2:34:59 PM4/11/2013 5:59:21 AM
3528165Vote for Abhiya Here please4/9/2013 3:55:46 PM4/13/2013 12:59:03 PM
3528206*-I'm a Sizzler-*4/9/2013 5:10:33 PM4/10/2013 2:16:50 PM
3528353PKYEK Season 24/9/2013 9:58:36 PM4/10/2013 1:53:53 PM
3528569The lines Abhay never used to Piya4/10/2013 1:06:03 AM4/12/2013 8:59:01 PM
3528658TOI: RD wants PYK back4/10/2013 2:37:14 AM4/12/2013 12:54:37 PM
3528781guyz vote for PKYEK4/10/2013 4:03:42 AM4/10/2013 11:49:33 AM
3528828Nach Baliye4/10/2013 4:42:52 AM4/11/2013 8:05:39 AM
3529001Which Love triangle in PKYEK was ur fav?4/10/2013 7:11:18 AM4/14/2013 12:19:29 AM
3530068TV Celebs as Superheroes; Vivian n Rithvick4/10/2013 11:30:09 PM4/11/2013 9:55:34 AM
3530143Hey All4/11/2013 12:18:56 AM4/14/2013 4:12:11 PM
3530677TV Celebs on Gudhi-Padva; Madhura Naik4/11/2013 7:08:50 AM4/11/2013 8:54:40 PM
3530741Vivian_de_mad_fan4/11/2013 8:04:47 AM4/13/2013 12:45:11 PM
3531443if pkyek 2 comes back4/11/2013 12:58:53 PM4/14/2013 7:25:50 AM
3531572* FOR TRUE ABHIYA FANS *4/11/2013 3:38:07 PM4/13/2013 12:43:29 PM
3531579Aren't they just the cutest funniest sweetest4/11/2013 3:49:39 PM8/15/2013 12:09:22 PM
3531897Badtaameez Dil maane naaa<34/11/2013 11:55:47 PM4/12/2013 10:47:58 PM
3531941you are awesome ekta mam !!4/12/2013 12:33:32 AM4/13/2013 4:50:46 AM
3531967TB:Rithvik wants new season of PKYEK4/12/2013 12:52:00 AM4/12/2013 12:38:00 PM
3532861wrong post4/12/2013 10:01:34 AM4/12/2013 11:27:51 AM
3533325RP 71: LoVe Is On Air Of Dehradun Forest4/12/2013 1:54:02 PM4/28/2013 4:52:10 AM
3533477kuch tum kaho,kuch hum kahe :P4/12/2013 7:17:41 PM4/16/2013 8:00:27 PM
3533601Abhayendra/Abhay4/12/2013 11:00:29 PM4/18/2013 9:14:11 PM
3533751lazy vampires c'mon save abhiya4/13/2013 1:27:33 AM4/13/2013 9:23:51 AM
3533757party on my mind4/13/2013 1:35:51 AM4/15/2013 1:54:18 AM
3533790balaji !!!4/13/2013 1:57:52 AM4/19/2013 11:22:06 AM
3533921fb post !!!4/13/2013 4:12:04 AM4/14/2013 7:19:56 AM
3534068Hola friends...4/13/2013 6:42:13 AM4/16/2013 8:31:42 AM
3534462AbhIya AT #133 To Be Only Yours.. I Pray <34/13/2013 11:17:21 AM4/22/2013 5:12:11 AM
3534613Abhaiya-And i feel scared...4/13/2013 1:30:56 PM8/4/2013 4:38:00 AM
3534868Happy Poilaa Baisaakh nd Subho naba barsho in advance4/13/2013 10:49:10 PM4/16/2013 4:40:10 AM
3535092Last post :) note pg 34/14/2013 3:12:14 AM4/17/2013 12:34:32 AM
3535179pappu c'nt dance(completed :D)4/14/2013 4:19:52 AM4/24/2013 1:29:22 PM
3535284VD at bareilly... :))4/14/2013 6:21:45 AM4/17/2013 3:27:27 AM
3535435PKYEK2 -Destroyed For Love - Episode 154/14/2013 8:49:21 AM6/2/2013 2:35:46 AM
3535508stop fighting guys pls :(4/14/2013 10:10:40 AM4/15/2013 12:27:01 AM
3535744Vd at Bareilly * Vid*4/14/2013 3:21:30 PM4/24/2013 3:40:27 PM
3535932Excuse me What was I thinking?4/14/2013 11:42:34 PM4/16/2013 9:31:45 AM
3536664Abhiya || Sun Raha Hai Na Tu ( Aashiqui 2 )4/15/2013 8:40:57 AM4/22/2013 3:37:43 PM
3537402Abhiya os caged emotions part 3 pg 9 short updt4/15/2013 2:22:51 PM12/29/2013 6:07:19 AM
3538160Kiss or Miss? DFL's New Promo :O4/16/2013 4:47:26 AM4/17/2013 10:56:15 AM
3539149*Abhiya / Sukku fans * Like Karo4/16/2013 1:12:57 PM4/18/2013 5:00:42 AM
3539281*Why is Abhay ... *4/16/2013 3:27:50 PM4/25/2013 3:03:09 AM
3539286*What is Chand Raichand doing ?*4/16/2013 3:32:26 PM4/24/2013 3:33:16 PM
<< | 304 | 305 | 306 | 307 | 308 | 309 | 310 | 311 | 312 | 313 | 314 | 315 | 316 | 317 | 318 | 319 | 320 | 321 | 322 | ... >>